SWR2K KIAD-LSZH

Flight info

Callsign SWR2K
Flight time N/A
Altitude 35000
Route WOOLY2 SWANN DCT BROSS Q419 RBV Q22 FOXWD DCT TAFFY/N0470F370 N787A JANJO/M082F380 DCT 56N050W 57N040W 57N030W 56N020W DCT RESNO DCT NETKI/N0476F390 DCT LIPGO DCT NUCHU DCT BOGNA UL612 VEULE DCT TEPRI DCT POGZI DCT GELTA DCT MANAG DCT PEVIT DCT BLM BLM3G
Aircraft A339/H-SADE1E2E3GHIJ3J5M1P2RWXY/LB2D1

Departure

Time 2026-05-01 12:15
Airport Washington Dulles International Airport (KIAD)

Arrival

Time N/A
Airport Zürich Airport (LSZH)
Time Latitude Longitude Altitude Speed Heading
2026-05-01 11:44 38.94481 -77.44291 310 ft 0 kts 23°
2026-05-01 12:04 38.94479 -77.44292 310 ft 1 kts 23°
2026-05-01 12:04 38.94466 -77.44299 310 ft 2 kts 29°
2026-05-01 12:04 38.94453 -77.44311 310 ft 2 kts 42°
2026-05-01 12:05 38.94442 -77.44325 310 ft 2 kts 51°
2026-05-01 12:05 38.94427 -77.44358 310 ft 2 kts 72°
2026-05-01 12:05 38.94424 -77.44377 310 ft 2 kts 82°
2026-05-01 12:06 38.94423 -77.44392 309 ft 0 kts 90°
2026-05-01 12:06 38.94423 -77.44395 309 ft 0 kts 91°
2026-05-01 12:08 38.94422 -77.44360 310 ft 7 kts 91°
2026-05-01 12:08 38.94421 -77.44267 310 ft 13 kts 90°
2026-05-01 12:09 38.94421 -77.44138 311 ft 14 kts 91°
2026-05-01 12:09 38.94407 -77.44011 312 ft 13 kts 129°
2026-05-01 12:09 38.94318 -77.43977 314 ft 13 kts 181°
2026-05-01 12:09 38.94214 -77.43978 314 ft 15 kts 180°
2026-05-01 12:10 38.94101 -77.43981 314 ft 16 kts 182°
2026-05-01 12:10 38.93854 -77.43988 314 ft 18 kts 181°
2026-05-01 12:10 38.93722 -77.43994 314 ft 19 kts 183°
2026-05-01 12:11 38.93444 -77.43989 314 ft 20 kts 181°
2026-05-01 12:11 38.93300 -77.43993 314 ft 20 kts 182°
2026-05-01 12:11 38.93153 -77.43998 314 ft 21 kts 181°
2026-05-01 12:12 38.93006 -77.43999 314 ft 21 kts 180°
2026-05-01 12:12 38.92863 -77.44001 317 ft 20 kts 179°
2026-05-01 12:12 38.92724 -77.44000 317 ft 20 kts 181°
2026-05-01 12:12 38.92582 -77.44006 317 ft 20 kts 182°
2026-05-01 12:13 38.92477 -77.44001 317 ft 13 kts 160°
2026-05-01 12:13 38.92429 -77.43920 319 ft 7 kts 94°
2026-05-01 12:13 38.92431 -77.43861 320 ft 6 kts 92°
2026-05-01 12:13 38.92429 -77.43800 321 ft 6 kts 92°
2026-05-01 12:14 38.92428 -77.43707 323 ft 13 kts 84°
2026-05-01 12:14 38.92471 -77.43653 324 ft 8 kts 12°
2026-05-01 12:14 38.92538 -77.43642 324 ft 11 kts
2026-05-01 12:14 38.92849 -77.43642 324 ft 79 kts
2026-05-01 12:15 38.93626 -77.43634 322 ft 139 kts 359°
2026-05-01 12:15 38.94769 -77.43587 357 ft 184 kts
2026-05-01 12:15 38.96086 -77.43514 933 ft 191 kts
2026-05-01 12:15 38.97331 -77.43156 1866 ft 180 kts 20°
2026-05-01 12:16 38.98451 -77.42463 2437 ft 183 kts 26°
2026-05-01 12:16 38.99647 -77.41729 2736 ft 198 kts 21°
2026-05-01 12:16 39.00994 -77.41015 3060 ft 215 kts 20°
2026-05-01 12:16 39.02458 -77.40266 3388 ft 232 kts 19°
2026-05-01 12:17 39.04031 -77.39475 3753 ft 248 kts 19°
2026-05-01 12:17 39.05655 -77.38663 4357 ft 253 kts 19°
2026-05-01 12:17 39.07300 -77.37843 5053 ft 255 kts 19°
2026-05-01 12:17 39.08951 -77.37020 5718 ft 257 kts 18°
2026-05-01 12:18 39.10617 -77.36193 6361 ft 259 kts 18°
2026-05-01 12:18 39.12298 -77.35358 6996 ft 261 kts 18°
2026-05-01 12:18 39.14034 -77.34499 7580 ft 266 kts 18°
2026-05-01 12:18 39.15756 -77.33646 8135 ft 270 kts 18°
2026-05-01 12:19 39.17548 -77.32755 8709 ft 274 kts 17°
2026-05-01 12:19 39.19325 -77.31871 9277 ft 278 kts 17°
2026-05-01 12:19 39.21156 -77.30962 9835 ft 282 kts 17°
2026-05-01 12:19 39.22966 -77.29917 10331 ft 292 kts 30°